OneWeb SL0272

operational
NORAD ID: 48990 Int'l Des: 2021-060 Owner: ONEWEBN Country: UK Constellation: oneweb
LEOCIRCULARPOLARONEWEB_TYPE

About OneWeb SL0272

Description loading...

Live Position

Loading 3D Globe...

Upcoming Passes

Altitude History

Altitude vs Time

uPlot chart will show altitude changes over time

Two-Line Element Set

1 48990U 21060Z 25261.04788373 .00000137 00000-0 32489-3 0 9995
2 48990 87.8972 283.0310 0001674 86.5114 273.6208 13.16596191203806
Epoch: Sep 18, 2025 • Age: 20 hours

Current Status

Altitude 1210.5 km
Velocity 7.25 km/s
Sub-Earth Point -32.46°S, 32.23°W
Launch Date Jul 1, 2021
Age 4.2 years
Type internet

Technical Details

Classification Payload
Mass 148.00 kg
Dry Mass 140.00 kg
Total Mass 148.00 kg
Length 1.30 m
Diameter 1.00 m
Span 5.00 m
Shape Trapezoid+2 pan
Manufacturer ONEWUS
Bus Type ARROW
Phase Status In Orbit
Owner/State ONEWEBN/UK

Large Constellations

Loading constellations...